EW4052 Weather Reports


time (UTC)temp
C
wind
direction
speed
KPH
gust
KPH
rain 1hr
cm
rain 24hr
cm
rain mn
cm
humidity
%
barometer
mb
20260507110044 3 20 0.0 0.0 0.00 0.00 0.00 66 1011.9
20260507104542 3 20 0.0 1.6 0.00 0.00 0.00 66 1012.1
20260507103043 3 20 0.0 0.0 0.00 0.00 0.00 65 1012.4
20260507101547 3 20 0.0 0.0 0.00 0.00 0.00 66 1012.1
20260507100043 3 20 0.0 0.0 0.00 0.00 0.00 67 1012.4
20260507094545 3 20 0.0 0.0 0.00 0.00 0.00 69 1012.3
20260507093042 3 20 0.0 0.0 0.00 0.00 0.00 66 1012.6
20260507091539 3 20 0.0 0.0 0.00 0.00 0.00 64 1012.6
20260507090036 4 20 0.0 0.0 0.00 0.00 0.00 64 1012.9
20260507084535 4 20 0.0 0.0 0.00 0.00 0.00 66 1013.3
20260507083028 4 20 0.0 0.0 0.00 0.00 0.00 66 1013.5
20260507081527 4 24 1.6 9.7 0.00 0.00 0.00 65 1013.8
20260507080024 3 355 0.0 0.0 0.00 0.00 0.00 65 1013.7
20260507074524 2 355 0.0 0.0 0.00 0.00 0.00 67 1013.8
20260507073025 2 355 0.0 0.0 0.00 0.00 0.00 67 1013.7
20260507071522 2 355 0.0 0.0 0.00 0.00 0.00 66 1013.9
20260507070020 2 355 0.0 0.0 0.00 0.00 0.00 66 1014.1
20260507064519 3 355 0.0 0.0 0.00 0.00 0.00 64 1014.1
20260507063018 3 355 0.0 0.0 0.00 0.00 0.00 64 1014.1
20260507061517 2 360 0.0 0.0 0.00 0.00 0.00 66 1014.1
20260507060023 2 360 0.0 0.0 0.00 0.00 0.00 66 1014.2
20260507054514 2 360 0.0 0.0 0.00 0.00 0.00 66 1014.4
20260507053011 2 360 0.0 0.0 0.00 0.00 0.00 65 1014.6
20260507051508 3 360 0.0 0.0 0.00 0.00 0.00 67 1014.7
20260507050006 3 360 0.0 0.0 0.00 0.00 0.00 66 1014.7
20260507044504 4 360 0.0 0.0 0.00 0.00 0.00 62 1014.8
20260507043002 5 360 0.0 0.0 0.00 0.00 0.00 60 1014.9
20260507041501 5 26 0.0 0.0 0.00 0.00 0.00 60 1015.0
20260507040100 5 26 0.0 0.0 0.00 0.00 0.00 59 1015.1
20260507034614 6 26 0.0 9.7 0.00 0.00 0.00 56 1015.2
20260507033059 7 5 0.0 0.0 0.00 0.00 0.00 53 1015.3
20260507031559 7 360 3.2 11.3 0.00 0.00 0.00 54 1015.4
20260507024600 7 341 6.4 9.7 0.00 0.00 0.00 55 1015.4
20260507023057 8 355 8.0 12.9 0.00 0.00 0.00 55 1015.3
20260507021557 8 311 3.2 8.0 0.00 0.00 0.00 54 1015.2
20260507020055 8 290 0.0 0.0 0.00 0.00 0.00 53 1015.1
20260507014558 8 286 0.0 0.0 0.00 0.00 0.00 51 1015.0
20260507013101 8 283 0.0 0.0 0.00 0.00 0.00 50 1014.9
20260507011557 9 283 0.0 0.0 0.00 0.00 0.00 48 1014.9
20260507010053 9 281 0.0 4.8 0.00 0.00 0.00 48 1015.0
20260507004552 10 255 11.3 17.7 0.00 0.00 0.00 48 1015.0
20260507003052 10 265 12.9 20.9 0.00 0.00 0.00 47 1015.0
20260507001552 10 239 9.7 32.2 0.00 0.00 0.00 45 1015.0
20260507000054 11 249 17.7 27.4 0.00 0.00 0.00 44 1015.0
20260506234554 11 240 17.7 30.6 0.00 0.00 0.00 45 1015.1
20260506233048 10 259 17.7 30.6 0.00 0.00 0.00 47 1015.3
20260506231547 10 248 16.1 25.7 0.00 0.00 0.00 47 1015.3
20260506230047 10 242 20.9 33.8 0.00 0.00 0.00 43 1015.3
20260506224600 10 261 19.3 30.6 0.00 0.00 0.00 49 1015.4
20260506223044 10 248 24.1 37.0 0.00 0.00 0.00 46 1015.4
20260506221543 10 234 25.7 37.0 0.00 0.00 0.00 48 1015.4
20260506220041 10 268 16.1 25.7 0.00 0.00 0.00 47 1015.4
20260506214556 10 257 12.9 32.2 0.00 0.00 0.00 47 1015.6
20260506213043 10 269 17.7 30.6 0.00 0.00 0.00 46 1015.7
20260506211537 10 232 20.9 33.8 0.00 0.00 0.00 48 1015.9
20260506210040 9 230 17.7 35.4 0.00 0.00 0.00 47 1016.1
20260506204536 10 229 20.9 38.6 0.00 0.00 0.00 46 1016.2
20260506203034 9 236 20.9 35.4 0.00 0.00 0.00 49 1016.4
20260506201532 9 237 16.1 35.4 0.00 0.00 0.00 48 1016.5
20260506200030 8 239 22.5 38.6 0.00 0.00 0.00 52 1016.7
20260506194527 8 240 29.0 35.4 0.00 0.00 0.00 52 1016.9
20260506193025 8 259 20.9 29.0 0.00 0.00 0.00 53 1016.9
20260506191523 8 234 17.7 41.8 0.00 0.00 0.00 52 1016.9
20260506190020 7 248 19.3 33.8 0.00 0.00 0.00 50 1017.0
20260506184526 7 261 24.1 35.4 0.00 0.00 0.00 53 1017.1
20260506183018 7 267 22.5 35.4 0.00 0.00 0.00 53 1017.1
20260506181517 7 249 24.1 40.2 0.00 0.00 0.00 56 1017.0
20260506180024 7 239 32.2 41.8 0.00 0.00 0.00 55 1017.1
20260506174516 7 249 27.4 37.0 0.00 0.00 0.00 53 1017.3
20260506173013 7 245 24.1 35.4 0.00 0.00 0.00 55 1017.2
20260506171513 7 267 24.1 35.4 0.00 0.00 0.00 55 1017.1
20260506170010 7 253 27.4 35.4 0.00 0.00 0.00 56 1017.2
20260506164512 7 258 24.1 38.6 0.00 0.00 0.00 58 1017.2
20260506163010 6 252 27.4 38.6 0.00 0.00 0.00 56 1017.2
20260506161511 6 253 22.5 41.8 0.00 0.00 0.00 58 1017.1
20260506160007 6 247 20.9 33.8 0.00 0.00 0.00 54 1017.0
20260506154505 6 254 22.5 32.2 0.00 0.00 0.00 60 1017.1
20260506153005 6 252 20.9 35.4 0.00 0.00 0.00 58 1017.0
20260506151504 6 272 11.3 27.4 0.00 0.00 0.00 57 1017.0
20260506150004 6 248 17.7 27.4 0.00 0.00 0.00 57 1016.9
20260506144501 6 263 16.1 29.0 0.00 0.00 0.00 58 1017.0
20260506143003 5 254 8.0 17.7 0.00 0.00 0.00 61 1017.0
20260506141605 5 241 8.0 19.3 0.00 0.00 0.00 62 1017.1
20260506140122 5 261 6.4 16.1 0.00 0.00 0.00 65 1017.0
20260506134600 4 248 6.4 11.3 0.00 0.00 0.00 64 1017.0
20260506133104 3 259 1.6 12.9 0.00 0.00 0.00 64 1016.9
20260506131557 3 257 3.2 14.5 0.00 0.00 0.00 67 1016.8
20260506130055 3 266 4.8 16.1 0.00 0.00 0.00 67 1016.8
20260506124556 3 259 1.6 14.5 0.00 0.00 0.00 69 1016.4
20260506123052 3 259 4.8 12.9 0.00 0.00 0.00 68 1016.4
20260506121551 3 250 6.4 16.1 0.00 0.00 0.00 69 1016.3
20260506120049 3 256 8.0 16.1 0.00 0.00 0.00 69 1016.0
20260506114553 3 259 6.4 16.1 0.00 0.00 0.00 69 1015.6
20260506113049 2 259 9.7 16.1 0.00 0.00 0.00 70 1015.6
20260506111542 2 265 4.8 12.9 0.00 0.00 0.00 69 1015.3